Lid_Strength_Index
8 7 7 7 8 8 8 8 14 11 13 10 10 9 7 6 6 6 6 5 5 5 5 5 4 4 4 3 3 2 2 2 2 2 2 2 1 1 1 0 0 0 0 1
9 7 7 8 7 7 7 7 8 8 9 7 7 6 7 7 6 6 6 6 5 5 4 4 3 3 2 2 2 2 2 2 2 2 2 3 1 1 1 1 0 0 0 1
12 8 8 10 8 8 7 7 7 10 9 7 7 7 8 7 7 7 6 5 5 4 4 3 3 2 3 2 2 2 2 2 2 2 2 2 1 1 1 1 1 1 1 1
11 10 15 9 6 6 8 7 7 8 8 7 7 7 7 6 6 6 5 5 4 4 3 3 3 2 2 2 2 2 2 2 2 2 2 1 1 1 1 1 1 1 1 0
13 12 10 9 11 9 9 9 7 8 7 7 6 7 7 5 4 5 4 3 3 2 3 3 3 2 2 2 2 2 2 2 2 1 2 1 2 2 1 1 1 1 1 1
11 14 15 11 7 6 6 11 7 7 8 8 8 12 10 5 4 4 3 2 2 2 2 2 2 2 3 3 3 3 2 2 1 1 1 2 1 2 1 1 1 1 1 1
13 13 11 8 6 6 12 13 7 7 7 8 9 8 6 4 4 3 3 2 2 2 2 2 1 1 2 2 3 2 1 1 1 1 1 1 1 1 1 1 2 2 1 1
11 13 15 6 7 10 8 6 6 6 6 7 6 6 5 4 4 3 3 2 2 2 2 1 1 1 2 2 1 1 1 1 2 1 1 1 1 1 1 1 2 2 2 2
10 11 6 5 6 5 5 6 6 6 5 5 5 5 4 4 3 3 3 2 2 2 2 1 1 1 2 1 1 1 1 1 1 1 1 1 1 2 2 1 2 2 2 2
8 7 6 6 5 4 4 5 4 4 4 4 4 4 4 3 3 3 2 2 2 2 2 2 1 1 1 1 0 1 1 1 1 1 1 1 1 1 2 2 2 2 3 3
7 6 6 5 5 5 5 3 4 3 3 4 4 4 3 3 3 3 2 2 2 2 2 2 1 1 1 0 0 1 1 1 1 1 1 1 1 1 1 1 2 2 2 2
8 6 6 6 5 4 6 5 3 4 4 3 3 3 3 3 3 2 2 2 2 2 2 2 1 1 1 0 0 1 2 1 1 1 1 1 1 2 5 6 7 10 11 8
5 4 4 4 4 4 4 5 3 3 2 3 2 2 2 3 2 3 2 2 2 2 2 2 2 2 1 0 0 1 1 1 1 1 1 1 1 2 3 3 9 11 11 11
3 4 5 4 6 3 4 3 2 2 2 2 2 2 2 2 2 2 3 2 1 2 2 2 2 1 0 -0 0 1 1 2 1 1 1 1 1 2 2 2 3 2 8 8
3 3 3 3 3 3 3 3 3 3 3 3 2 2 2 3 2 2 1 1 1 2 1 1 1 1 -0 -0 0 1 1 1 1 1 1 1 1 1 2 2 2 2 2 5
3 3 3 3 3 3 3 3 3 3 3 3 2 2 2 2 2 2 1 1 2 2 1 1 1 0 -0 -0 0 1 1 1 2 1 1 1 1 2 2 2 2 2 2 2
4 5 4 4 4 4 3 2 3 3 3 3 3 2 2 2 2 2 2 1 1 1 1 1 1 -0 -0 0 1 1 1 1 1 1 1 1 1 1 1 2 2 2 2 2
3 3 3 3 3 3 3 2 3 3 2 3 2 2 2 2 3 2 2 1 1 1 1 0 0 0 0 0 0 0 1 1 1 1 1 1 1 1 1 2 2 2 2 1
3 3 2 2 2 2 2 2 2 2 2 2 2 2 2 2 2 2 2 2 2 2 1 0 1 0 0 0 1 0 1 1 1 1 2 2 2 1 1 2 2 2 2 2
3 2 2 2 2 2 3 2 2 2 2 2 2 2 2 2 2 2 2 2 1 1 0 0 -0 0 -0 -0 0 0 0 1 2 1 1 1 2 2 2 3 2 2 2 3
3 2 2 2 2 2 2 2 2 2 2 1 2 2 2 1 1 1 2 2 1 0 -0 0 0 0 -1 0 0 0 0 1 1 1 2 1 1 2 2 2 2 2 2 2
3 3 3 2 2 2 2 1 1 1 1 1 2 1 1 2 1 1 1 2 0 4 0 0 0 2 0 2 0 0 0 0 1 1 1 1 1 1 1 1 1 1 1 1
3 2 2 2 2 1 1 1 1 1 1 1 2 1 2 2 1 2 2 1 0 3 0 0 2 2 2 0 0 0 0 1 1 0 0 1 1 0 1 2 1 1 2 1
3 2 2 1 1 2 2 3 2 1 1 1 1 1 1 2 1 1 0 2 3 2 0 1 1 2 4 0 0 0 0 0 0 0 0 5 0 0 0 1 0 1 1 2
3 2 2 2 2 3 2 2 2 2 2 2 2 1 0 1 2 1 0 0 4 2 0 2 1 2 0 0 0 0 0 0 0 0 1 0 0 0 0 -0 0 1 1 1
3 3 2 1 2 2 2 1 2 1 1 2 2 1 1 1 1 1 1 1 1 1 0 -0 0 0 0 0 0 0 0 0 0 1 1 0 0 0 0 0 0 0 0 0
3 4 3 3 3 2 1 1 2 2 1 2 2 2 1 1 1 2 2 1 1 1 1 0 0 1 0 0 0 0 0 0 2 0 0 0 0 0 0 0 -0 -0 -0 -0